Location: Atherton
(17.2661°S, 145.4859°E)
Time: 00:30:58
(UTC+10:00)

Vanguard 1 - Pass Details

Date: 27 June 2025
Orbit: 649 x 3822 km, 34.2° (Epoch: 17 July)

Event Time Altitude Azimuth Distance (km) Brightness Sun altitude
Rises 02:16:16 0° 240° (WSW) 3,431 - -62.4°
Reaches altitude 10° 02:19:01 10° 241° (WSW) 2,274 - -61.7°
Maximum altitude 02:23:53 80° 326° (NNW) 666 - -60.6°
Drops below altitude 10° 02:28:21 10° 54° (NE) 2,094 - -59.6°
Sets 02:30:47 0° 55° (NE) 3,131 - -59.1°
